Flight Track Log - Related Links

Times and Time Zones

All times are in EDT time to prevent confusion due to time zone crossing. See the SWA1542 flight status page for this flight to view local times or setup timezone preferences in your user account.

Time Position Orientation Groundspeed Altitude Reporting Facility
EDT Latitude Longitude Course Direction KTS MPH feet Rate Location/Type
Mon 01:00:42 AM 39.5500 -119.7500 27° Northeast 213 245 7,800  Level Northern Cal TRACON
Mon 01:01:42 AM 39.6000 -119.7167 27° Northeast 239 275 11,900 3,400 Climbing Northern Cal TRACON
Mon 01:02:42 AM 39.5833 -119.6333 105° East 319 367 14,600 2,613 Climbing Northern Cal TRACON
Mon 01:03:46 AM 39.5103 -119.5472 138° Southeast 362 417 17,300 2,832 Climbing Oakland Center
Mon 01:04:47 AM 39.4289 -119.4478 137° Southeast 396 456 20,500 3,049 Climbing Oakland Center
Mon 01:05:48 AM 39.3400 -119.3425 137° Southeast 426 490 23,500 3,049 Climbing Oakland Center
Mon 01:06:49 AM 39.2242 -119.2197 141° Southeast 448 516 26,700 2,705 Climbing Oakland Center
Mon 01:07:50 AM 39.1233 -119.1114 140° Southeast 471 542 29,000 1,140 Climbing Oakland Center
Mon 01:08:50 AM 39.0206 -119.0028 141° Southeast 481 554 29,000 99 Level Oakland Center
Mon 01:09:51 AM 38.9172 -118.8925 140° Southeast 486 559 29,200 1,355 Climbing Oakland Center
Mon 01:10:54 AM 38.8081 -118.7781 141° Southeast 504 580 31,800 1,869 Climbing Oakland Center
Mon 01:11:53 AM 38.7003 -118.6656 141° Southeast 504 580 33,000 605 Climbing Oakland Center
Mon 01:12:53 AM 38.5922 -118.5536 141° Southeast 501 577 33,000  Level Oakland Center
Mon 01:13:54 AM 38.4842 -118.4411 141° Southeast 502 578 33,000  Level Oakland Center
Mon 01:14:55 AM 38.3769 -118.3294 141° Southeast 500 575 33,000  Level Oakland Center
Mon 01:15:56 AM 38.2692 -118.2181 141° Southeast 500 575 33,000  Level Oakland Center
Mon 01:16:57 AM 38.1539 -118.0994 141° Southeast 503 579 33,000  Level Oakland Center
Mon 01:17:57 AM 38.0458 -117.9883 141° Southeast 503 579 33,000  Level Oakland Center
Mon 01:18:58 AM 37.9361 -117.8775 141° Southeast 507 583 33,000  Level Oakland Center
Mon 01:19:59 AM 37.8278 -117.7686 142° Southeast 502 578 33,000  Level Oakland Center
Mon 01:20:59 AM 37.7197 -117.6597 141° Southeast 501 577 33,000  Level Oakland Center
Mon 01:22:00 AM 37.6108 -117.5494 141° Southeast 505 581 33,000  Level Oakland Center
Mon 01:23:01 AM 37.4803 -117.4183 141° Southeast 505 581 33,000  Level Oakland Center
Mon 01:24:02 AM 37.3708 -117.3092 142° Southeast 504 580 33,000  Level Oakland Center
Mon 01:25:05 AM 37.2608 -117.2025 142° Southeast 502 578 33,000  Level Oakland Center
Mon 01:26:03 AM 37.1517 -117.0939 142° Southeast 502 578 33,000  Level Oakland Center
Mon 01:27:04 AM 37.0431 -116.9861 142° Southeast 497 572 33,000  Level Oakland Center
Mon 01:28:04 AM 36.9344 -116.8792 142° Southeast 496 571 33,000  Level Oakland Center
Mon 01:28:19 AM 36.9117 -116.8564 141° Southeast 499 574 33,000  Level Los Angeles Center
Mon 01:29:21 AM 36.8028 -116.7467 141° Southeast 501 577 33,000 -780 Level Los Angeles Center
Mon 01:30:22 AM 36.7106 -116.6197 132° Southeast 498 573 31,400 -2,262 Descending Los Angeles Center
Mon 01:31:23 AM 36.6200 -116.4892 131° Southeast 498 573 28,400 -2,951 Descending Los Angeles Center
Mon 01:32:24 AM 36.5156 -116.3411 131° Southeast 489 563 25,400 -2,683 Descending Los Angeles Center
Mon 01:33:26 AM 36.4300 -116.2197 131° Southeast 473 544 22,900 -2,488 Descending Los Angeles Center
Mon 01:34:27 AM 36.3417 -116.0936 131° Southeast 457 526 20,300 -2,489 Descending Los Angeles Center
Mon 01:35:00 AM 36.2936 -116.0369 136° Southeast 448 516 19,000 -2,459 Descending Los Angeles Center
Mon 01:35:28 AM 36.2608 -115.9808 126° Southeast 441 507 17,800 -2,694 Descending Los Angeles Center
Mon 01:35:49 AM 36.2261 -115.9414 137° Southeast 439 505 16,800 -1,770 Descending Los Angeles Center
Mon 01:36:29 AM 36.1919 -115.8639 119° Southeast 423 487 16,000 -787 Descending Los Angeles Center
Mon 01:36:50 AM 36.1717 -115.8153 117° Southeast 410 472 16,000 -197 Level Los Angeles Center
Mon 01:37:30 AM 36.1444 -115.7261 111° Southeast 406 467 15,800 -600 Descending Los Angeles Center
Mon 01:37:50 AM 36.1314 -115.6872 113° Southeast 398 458 15,400 -984 Descending Los Angeles Center
Mon 01:38:31 AM 36.1042 -115.6028 112° Southeast 390 449 14,800 -885 Descending Los Angeles Center
Mon 01:38:51 AM 36.0892 -115.5600 113° Southeast 389 448 14,500 -984 Descending Los Angeles Center
Mon 01:39:32 AM 36.0714 -115.4861 107° East 388 447 13,800 -1,082 Descending Los Angeles Center
Mon 01:39:52 AM 36.0783 -115.4386 80° East 366 421 13,400 -1,065 Descending Los Angeles Center
Mon 01:40:34 AM 36.0869 -115.3697 81° East 354 407 12,700 -1,082 Descending Los Angeles Center
Mon 01:40:53 AM 36.0928 -115.3250 81° East 337 388 12,300 -740 Descending Los Angeles Center
Mon 01:41:47 AM 36.1008 -115.2569 82° East 339 390 11,800 -887 Descending Los Angeles Center
Mon 01:42:48 AM 36.1161 -115.1353 81° East 304 350 10,600 -1,328 Descending Los Angeles Center
Mon 01:43:49 AM 36.0553 -115.0592 135° Southeast 296 341 9,100 -885 Descending Los Angeles Center
Mon 01:44:50 AM 35.9906 -115.0886 200° South 256 295 8,800 -689 Descending Los Angeles Center
Mon 01:45:51 AM 35.9344 -115.1142 200° South 227 261 7,700 -1,131 Descending Los Angeles Center
Mon 01:46:52 AM 35.8992 -115.1686 231° Southwest 211 243 6,500 -938 Descending Los Angeles Center
Mon 01:47:59 AM 35.9314 -115.2183 309° West 173 199 5,700 -898 Descending Los Angeles Center
Mon 01:48:59 AM 35.9767 -115.2169 North 163 188 4,600 -992 Descending Los Angeles Center
Mon 01:50:00 AM 36.0164 -115.2011 18° North 144 166 3,700 -836 Descending Los Angeles Center
Mon 01:51:01 AM 36.0469 -115.1831 26° Northeast 122 140 2,900 -667 Descending Los Angeles Center
Mon 01:51:21 AM 36.0492 -115.1794 53° Northeast 138 159 2,800 -296 Descending Los Angeles Center
Mon 01:52:22 AM 36.0892 -115.1578 24° Northeast 136 157 2,500 -295 Descending Los Angeles Center
Mon 01:54:00 AM 36.0801 -115.1523 95° East  Level Estimated

Login

Don't have an account? Register now (free) for customized features, flight alerts, and more!